When you browse on this site, cookies collect data to enhance your experience and personalize the content and advertising you see.
Visit our Privacy Policy to learn more. By continuing to use the site, you agree to this use of cookies and data.
  • In Hungary
  • List of Countries
  • For 7 days
  • Water Temperature
  • Weather Map
  • News
  • Weather Widgets
  • user-avatar
    Login

    Hourly Weather Pozhare

    Today, 25 January, Saturday

    Time Temperature Precipitation Wind Pressure Humidity
    00:00 -2°C° 0 mm 4 mps 733 mmHg 90%
    01:00 -3°C° 0 mm 4 mps 733 mmHg 91%
    02:00 -3°C° 0 mm 4 mps 733 mmHg 92%
    03:00 -3°C° 0 mm 4 mps 733 mmHg 90%
    04:00 -3°C° 0 mm 4 mps 732 mmHg 88%
    05:00 -3°C° 0 mm 4 mps 732 mmHg 86%
    06:00 -3°C° 0 mm 4 mps 732 mmHg 87%
    07:00 -3°C° 0 mm 4 mps 731 mmHg 88%
    08:00 -3°C° 0 mm 4 mps 731 mmHg 88%
    09:00 -4°C° 0.5 mm 5 mps 731 mmHg 88%
    10:00 -3°C° 0.5 mm 6 mps 730 mmHg 88%
    11:00 -3°C° 0.5 mm 7 mps 730 mmHg 89%
    12:00 -3°C° 0.1 mm 6 mps 730 mmHg 82%
    13:00 -3°C° 0.1 mm 6 mps 730 mmHg 76%
    14:00 -3°C° 0.1 mm 6 mps 730 mmHg 70%
    15:00 -4°C° 0 mm 6 mps 731 mmHg 72%
    16:00 -4°C° 0 mm 5 mps 731 mmHg 75%
    17:00 -5°C° 0 mm 5 mps 732 mmHg 78%
    18:00 -5°C° 0 mm 5 mps 733 mmHg 79%
    19:00 -5°C° 0 mm 5 mps 733 mmHg 81%
    20:00 -6°C° 0 mm 5 mps 734 mmHg 82%
    21:00 -6°C° 0 mm 5 mps 735 mmHg 83%
    22:00 -6°C° 0 mm 5 mps 736 mmHg 84%
    23:00 -6°C° 0 mm 5 mps 737 mmHg 85%

    Tomorrow, 26 January, Sunday

    Time Temperature Precipitation Wind Pressure Humidity
    00:00 -6°C° 0 mm 5 mps 737 mmHg 84%
    01:00 -6°C° 0 mm 5 mps 738 mmHg 83%
    02:00 -6°C° 0 mm 5 mps 739 mmHg 82%
    03:00 -6°C° 0 mm 5 mps 739 mmHg 81%
    04:00 -6°C° 0 mm 5 mps 740 mmHg 80%
    05:00 -5°C° 0 mm 4 mps 741 mmHg 80%
    06:00 -7°C° 0 mm 4 mps 741 mmHg 82%
    07:00 -6°C° 0 mm 3 mps 741 mmHg 85%
    08:00 -7°C° 0 mm 3 mps 742 mmHg 87%
    09:00 -6°C° 0 mm 3 mps 742 mmHg 86%
    10:00 -5°C° 0 mm 3 mps 742 mmHg 84%
    11:00 -5°C° 0 mm 3 mps 743 mmHg 82%
    12:00 -4°C° 0 mm 3 mps 742 mmHg 83%
    13:00 -4°C° 0 mm 3 mps 742 mmHg 84%
    14:00 -4°C° 0 mm 4 mps 741 mmHg 86%
    15:00 -3°C° 0.6 mm 4 mps 740 mmHg 89%
    16:00 -4°C° 0.6 mm 5 mps 739 mmHg 92%
    17:00 -4°C° 0.6 mm 5 mps 738 mmHg 95%
    18:00 -2°C° 0.5 mm 5 mps 738 mmHg 95%
    19:00 0°C° 0.5 mm 5 mps 737 mmHg 95%
    20:00 +1°C° 0.5 mm 5 mps 737 mmHg 96%
    21:00 +1°C° 0.4 mm 5 mps 737 mmHg 96%
    22:00 +1°C° 0.4 mm 5 mps 738 mmHg 96%
    23:00 +1°C° 0.4 mm 5 mps 738 mmHg 96%

    Day after tomorrow, 27 January, Monday

    Time Temperature Precipitation Wind Pressure Humidity
    00:00 0°C° 0.1 mm 5 mps 738 mmHg 95%
    01:00 0°C° 0.1 mm 4 mps 739 mmHg 95%
    02:00 -1°C° 0.1 mm 4 mps 740 mmHg 95%
    03:00 -1°C° 0.1 mm 3 mps 741 mmHg 94%
    04:00 -4°C° 0.1 mm 3 mps 741 mmHg 94%
    05:00 -4°C° 0.1 mm 2 mps 742 mmHg 93%
    06:00 -5°C° 0 mm 2 mps 743 mmHg 93%
    07:00 -5°C° 0 mm 2 mps 743 mmHg 93%
    08:00 -4°C° 0 mm 1 mps 744 mmHg 94%
    09:00 -4°C° 0 mm 1 mps 744 mmHg 91%
    10:00 -3°C° 0 mm 1 mps 745 mmHg 88%
    11:00 -3°C° 0 mm 1 mps 745 mmHg 86%
    12:00 -5°C° 0 mm 2 mps 745 mmHg 85%
    13:00 -5°C° 0 mm 2 mps 745 mmHg 85%
    14:00 -5°C° 0 mm 2 mps 745 mmHg 85%
    15:00 -5°C° 0 mm 2 mps 746 mmHg 86%
    16:00 -5°C° 0 mm 2 mps 746 mmHg 87%
    17:00 -6°C° 0 mm 3 mps 746 mmHg 88%
    18:00 -6°C° 0.2 mm 3 mps 746 mmHg 90%
    19:00 -6°C° 0.2 mm 3 mps 746 mmHg 91%
    20:00 -6°C° 0.2 mm 3 mps 746 mmHg 92%
    21:00 -6°C° 0.2 mm 3 mps 745 mmHg 92%
    22:00 -6°C° 0.2 mm 3 mps 745 mmHg 92%
    23:00 -7°C° 0.2 mm 4 mps 745 mmHg 92%

    28 January, Tuesday

    Time Temperature Precipitation Wind Pressure Humidity
    00:00 -6°C° 0.1 mm 3 mps 745 mmHg 92%
    01:00 -6°C° 0.1 mm 3 mps 744 mmHg 93%
    02:00 -6°C° 0.1 mm 3 mps 744 mmHg 93%
    03:00 -6°C° 0.1 mm 3 mps 744 mmHg 93%
    04:00 -6°C° 0.1 mm 3 mps 744 mmHg 94%
    05:00 -6°C° 0.1 mm 3 mps 743 mmHg 94%
    06:00 -4°C° 0.2 mm 2 mps 743 mmHg 94%
    07:00 -4°C° 0.2 mm 2 mps 743 mmHg 95%
    08:00 -4°C° 0.2 mm 2 mps 743 mmHg 95%
    09:00 -4°C° 0.1 mm 2 mps 743 mmHg 95%
    10:00 -3°C° 0.1 mm 2 mps 743 mmHg 95%
    11:00 -3°C° 0.1 mm 2 mps 743 mmHg 95%
    12:00 -2°C° 0.1 mm 2 mps 743 mmHg 95%
    13:00 -2°C° 0.1 mm 2 mps 743 mmHg 96%
    14:00 -2°C° 0.1 mm 2 mps 743 mmHg 96%
    15:00 -2°C° 0.1 mm 2 mps 743 mmHg 97%
    16:00 -2°C° 0.1 mm 2 mps 743 mmHg 97%
    17:00 -2°C° 0.1 mm 2 mps 742 mmHg 97%
    18:00 -1°C° 0.1 mm 2 mps 743 mmHg 98%
    19:00 -1°C° 0.1 mm 2 mps 743 mmHg 98%
    20:00 -1°C° 0.1 mm 2 mps 743 mmHg 98%
    21:00 -1°C° 0.1 mm 2 mps 742 mmHg 98%
    22:00 -1°C° 0.1 mm 2 mps 742 mmHg 98%
    23:00 -1°C° 0.1 mm 2 mps 742 mmHg 97%

    29 January, Wednesday

    Time Temperature Precipitation Wind Pressure Humidity
    00:00 -1°C° 0.1 mm 2 mps 742 mmHg 97%
    01:00 -1°C° 0.1 mm 3 mps 742 mmHg 97%
    02:00 -1°C° 0.1 mm 3 mps 742 mmHg 96%
    03:00 -1°C° 0 mm 3 mps 741 mmHg 96%
    04:00 -2°C° 0 mm 3 mps 741 mmHg 96%
    05:00 -2°C° 0 mm 3 mps 741 mmHg 96%
    06:00 -2°C° 0 mm 3 mps 741 mmHg 95%
    07:00 -2°C° 0 mm 3 mps 741 mmHg 95%
    08:00 -2°C° 0 mm 3 mps 741 mmHg 95%
    09:00 -2°C° 0 mm 3 mps 741 mmHg 94%
    10:00 -1°C° 0 mm 3 mps 741 mmHg 94%
    11:00 -1°C° 0 mm 3 mps 741 mmHg 94%
    12:00 -1°C° 0 mm 4 mps 740 mmHg 93%
    13:00 -1°C° 0 mm 4 mps 740 mmHg 93%
    14:00 -1°C° 0 mm 4 mps 740 mmHg 92%
    15:00 0°C° 0 mm 3 mps 740 mmHg 92%
    16:00 0°C° 0 mm 3 mps 740 mmHg 92%
    17:00 0°C° 0 mm 3 mps 740 mmHg 92%
    18:00 0°C° 0 mm 3 mps 740 mmHg 94%
    19:00 0°C° 0 mm 3 mps 739 mmHg 95%
    20:00 -1°C° 0 mm 4 mps 739 mmHg 96%
    21:00 -1°C° 0.1 mm 4 mps 739 mmHg 97%
    22:00 -1°C° 0.1 mm 4 mps 739 mmHg 97%
    23:00 -1°C° 0.1 mm 4 mps 739 mmHg 97%

    30 January, Thursday

    Time Temperature Precipitation Wind Pressure Humidity
    00:00 -1°C° 0 mm 4 mps 738 mmHg 97%
    01:00 -1°C° 0 mm 4 mps 738 mmHg 97%
    02:00 -1°C° 0 mm 4 mps 738 mmHg 97%
    03:00 -1°C° 0 mm 4 mps 737 mmHg 97%
    04:00 -1°C° 0 mm 4 mps 737 mmHg 97%
    05:00 -1°C° 0 mm 4 mps 736 mmHg 97%
    06:00 -1°C° 0.2 mm 4 mps 736 mmHg 97%
    07:00 -1°C° 0.2 mm 4 mps 735 mmHg 97%
    08:00 -1°C° 0.2 mm 4 mps 735 mmHg 97%
    09:00 -1°C° 0.5 mm 4 mps 735 mmHg 97%
    10:00 -1°C° 0.5 mm 4 mps 735 mmHg 97%
    11:00 -1°C° 0.5 mm 4 mps 734 mmHg 97%
    12:00 -1°C° 0.3 mm 4 mps 734 mmHg 94%
    13:00 -1°C° 0.3 mm 4 mps 734 mmHg 91%
    14:00 -1°C° 0.3 mm 4 mps 734 mmHg 89%
    15:00 -2°C° 0 mm 4 mps 734 mmHg 89%
    16:00 -2°C° 0 mm 4 mps 734 mmHg 89%
    17:00 -2°C° 0 mm 3 mps 734 mmHg 89%
    18:00 -3°C° 0 mm 4 mps 734 mmHg 91%
    19:00 -3°C° 0 mm 4 mps 734 mmHg 92%
    20:00 -3°C° 0 mm 4 mps 734 mmHg 94%
    21:00 -2°C° 0.2 mm 4 mps 734 mmHg 95%
    22:00 -2°C° 0.2 mm 4 mps 734 mmHg 95%
    23:00 -2°C° 0.2 mm 4 mps 734 mmHg 96%
    Show more